| time (UTC) | temp F | wind direction | speed MPH | gust MPH | rain 1hr in | rain 24hr in | rain mn in | humidity % | barometer mb |
| 20260905091217 | 71 | 0 | 1.0 | 4.0 | 0.00 | 0.00 | 0.00 | 65 | 1017.0 |
| 20260905090722 | 71 | 0 | 1.0 | 4.0 | 0.00 | 0.00 | 0.00 | 65 | 1017.1 |
| 20260905090543 | 71 | 0 | 1.0 | 4.0 | 0.00 | 0.00 | 0.00 | 65 | 1017.1 |
| 20260905090450 | 71 | 0 | 1.0 | 4.0 | 0.00 | 0.00 | 0.00 | 65 | 1017.1 |
| 20260905085651 | 71 | 0 | 1.0 | 4.0 | 0.00 | 0.00 | 0.00 | 65 | 1017.2 |
| 20260905085156 | 72 | 0 | 1.0 | 4.0 | 0.00 | 0.00 | 0.00 | 65 | 1017.2 |
| 20260905084652 | 72 | 0 | 2.0 | 5.0 | 0.00 | 0.00 | 0.00 | 64 | 1017.1 |
| 20260905084150 | 72 | 0 | 2.0 | 9.0 | 0.00 | 0.00 | 0.00 | 64 | 1017.2 |
| 20260905083638 | 72 | 0 | 3.0 | 9.0 | 0.00 | 0.00 | 0.00 | 63 | 1017.1 |
| 20260905083133 | 72 | 0 | 2.0 | 8.0 | 0.00 | 0.00 | 0.00 | 63 | 1017.0 |
| 20260905082638 | 72 | 0 | 2.0 | 6.0 | 0.00 | 0.00 | 0.00 | 63 | 1017.1 |
| 20260905082105 | 73 | 0 | 2.0 | 8.0 | 0.00 | 0.00 | 0.00 | 63 | 1017.0 |
| 20260905081603 | 73 | 0 | 1.0 | 8.0 | 0.00 | 0.00 | 0.00 | 63 | 1016.9 |
| 20260905081057 | 73 | 0 | 1.0 | 5.0 | 0.00 | 0.00 | 0.00 | 63 | 1016.9 |
| 20260905080557 | 73 | 0 | 1.0 | 4.0 | 0.00 | 0.00 | 0.00 | 62 | 1016.9 |
| 20260905080107 | 73 | 0 | 1.0 | 3.0 | 0.00 | 0.00 | 0.00 | 62 | 1017.0 |
| 20260905075532 | 74 | 0 | 0.0 | 3.0 | 0.00 | 0.00 | 0.00 | 62 | 1017.0 |
| 20260905075012 | 74 | 0 | 1.0 | 4.0 | 0.00 | 0.00 | 0.00 | 61 | 1017.0 |
| 20260905074521 | 74 | 0 | 1.0 | 6.0 | 0.00 | 0.00 | 0.00 | 60 | 1016.9 |
| 20260905074007 | 75 | 0 | 1.0 | 6.0 | 0.00 | 0.00 | 0.00 | 60 | 1017.0 |
| 20260905073446 | 75 | 0 | 2.0 | 6.0 | 0.00 | 0.00 | 0.00 | 59 | 1016.9 |
| 20260905073156 | 76 | 0 | 2.0 | 6.0 | 0.00 | 0.00 | 0.00 | 58 | 1016.9 |
| 20260905073034 | 76 | 0 | 2.0 | 6.0 | 0.00 | 0.00 | 0.00 | 58 | 1016.9 |
| 20260905072425 | 76 | 0 | 1.0 | 4.0 | 0.00 | 0.00 | 0.00 | 57 | 1016.9 |
| 20260905071926 | 76 | 0 | 1.0 | 4.0 | 0.00 | 0.00 | 0.00 | 56 | 1017.0 |
| 20260905071403 | 76 | 0 | 1.0 | 4.0 | 0.00 | 0.00 | 0.00 | 56 | 1017.1 |
| 20260905070902 | 77 | 0 | 1.0 | 5.0 | 0.00 | 0.00 | 0.00 | 55 | 1016.9 |
| 20260905070356 | 77 | 0 | 2.0 | 5.0 | 0.00 | 0.00 | 0.00 | 55 | 1016.9 |
| 20260905065854 | 77 | 0 | 2.0 | 5.0 | 0.00 | 0.00 | 0.00 | 54 | 1016.9 |
| 20260905065349 | 77 | 0 | 2.0 | 6.0 | 0.00 | 0.00 | 0.00 | 54 | 1016.9 |
| 20260905064846 | 78 | 0 | 2.0 | 6.0 | 0.00 | 0.00 | 0.00 | 53 | 1016.9 |
| 20260905064605 | 78 | 0 | 2.0 | 8.0 | 0.00 | 0.00 | 0.00 | 53 | 1017.0 |
| 20260905064443 | 78 | 0 | 2.0 | 8.0 | 0.00 | 0.00 | 0.00 | 53 | 1017.0 |
| 20260905063825 | 78 | 0 | 2.0 | 8.0 | 0.00 | 0.00 | 0.00 | 53 | 1017.0 |
| 20260905063319 | 77 | 0 | 2.0 | 6.0 | 0.00 | 0.00 | 0.00 | 53 | 1017.0 |
| 20260905063039 | 77 | 0 | 1.0 | 6.0 | 0.00 | 0.00 | 0.00 | 53 | 1017.1 |
| 20260905062910 | 77 | 0 | 1.0 | 6.0 | 0.00 | 0.00 | 0.00 | 53 | 1017.1 |
| 20260905062245 | 77 | 0 | 1.0 | 5.0 | 0.00 | 0.00 | 0.00 | 54 | 1017.1 |
| 20260905061712 | 77 | 0 | 2.0 | 5.0 | 0.00 | 0.00 | 0.00 | 54 | 1017.2 |
| 20260905061209 | 77 | 0 | 1.0 | 9.0 | 0.00 | 0.00 | 0.00 | 55 | 1017.2 |
| 20260905060702 | 77 | 0 | 1.0 | 9.0 | 0.00 | 0.00 | 0.00 | 56 | 1017.2 |
| 20260905060159 | 77 | 0 | 1.0 | 5.0 | 0.00 | 0.00 | 0.00 | 56 | 1017.1 |
| 20260905055655 | 77 | 0 | 1.0 | 5.0 | 0.00 | 0.00 | 0.00 | 56 | 1017.0 |
| 20260905055138 | 77 | 0 | 1.0 | 3.0 | 0.00 | 0.00 | 0.00 | 56 | 1017.0 |
| 20260905054639 | 77 | 0 | 1.0 | 3.0 | 0.00 | 0.00 | 0.00 | 56 | 1016.9 |
| 20260905054137 | 77 | 0 | 1.0 | 3.0 | 0.00 | 0.00 | 0.00 | 56 | 1016.8 |
| 20260905053639 | 77 | 0 | 0.0 | 3.0 | 0.00 | 0.00 | 0.00 | 56 | 1016.8 |
| 20260905053144 | 78 | 0 | 0.0 | 3.0 | 0.00 | 0.00 | 0.00 | 55 | 1016.9 |
| 20260905052639 | 78 | 0 | 1.0 | 3.0 | 0.00 | 0.00 | 0.00 | 55 | 1016.8 |
| 20260905052343 | 78 | 0 | 1.0 | 4.0 | 0.00 | 0.00 | 0.00 | 55 | 1016.8 |
| 20260905052218 | 78 | 0 | 1.0 | 4.0 | 0.00 | 0.00 | 0.00 | 55 | 1016.8 |
| 20260905051610 | 78 | 0 | 2.0 | 4.0 | 0.00 | 0.00 | 0.00 | 55 | 1016.8 |
| 20260905051322 | 78 | 0 | 1.0 | 4.0 | 0.00 | 0.00 | 0.00 | 55 | 1016.9 |
| 20260905051202 | 78 | 0 | 1.0 | 4.0 | 0.00 | 0.00 | 0.00 | 55 | 1016.9 |
| 20260905050805 | 79 | 0 | 1.0 | 4.0 | 0.00 | 0.00 | 0.00 | 56 | 1016.8 |
| 20260905050649 | 79 | 0 | 1.0 | 4.0 | 0.00 | 0.00 | 0.00 | 56 | 1016.8 |
| 20260905050056 | 79 | 0 | 1.0 | 4.0 | 0.00 | 0.00 | 0.00 | 56 | 1016.9 |
| 20260905045544 | 80 | 0 | 1.0 | 4.0 | 0.00 | 0.00 | 0.00 | 56 | 1016.9 |
| 20260905045305 | 80 | 0 | 1.0 | 3.0 | 0.00 | 0.00 | 0.00 | 56 | 1016.9 |
| 20260905045145 | 80 | 0 | 1.0 | 3.0 | 0.00 | 0.00 | 0.00 | 56 | 1016.9 |
| 20260905044513 | 80 | 0 | 0.0 | 2.0 | 0.00 | 0.00 | 0.00 | 56 | 1017.0 |
| 20260905044018 | 81 | 0 | 0.0 | 3.0 | 0.00 | 0.00 | 0.00 | 56 | 1017.0 |
| 20260905043444 | 81 | 0 | 0.0 | 3.0 | 0.00 | 0.00 | 0.00 | 55 | 1017.0 |
| 20260905042935 | 81 | 0 | 1.0 | 3.0 | 0.00 | 0.00 | 0.00 | 55 | 1016.9 |
| 20260905042637 | 81 | 0 | 2.0 | 5.0 | 0.00 | 0.00 | 0.00 | 55 | 1017.0 |
| 20260905042524 | 81 | 0 | 2.0 | 5.0 | 0.00 | 0.00 | 0.00 | 55 | 1017.0 |
| 20260905041914 | 81 | 0 | 2.0 | 5.0 | 0.00 | 0.00 | 0.00 | 54 | 1017.0 |
| 20260905041414 | 82 | 0 | 1.0 | 4.0 | 0.00 | 0.00 | 0.00 | 55 | 1016.9 |
| 20260905040841 | 82 | 0 | 0.0 | 3.0 | 0.00 | 0.00 | 0.00 | 54 | 1016.9 |
| 20260905040324 | 82 | 0 | 0.0 | 3.0 | 0.00 | 0.00 | 0.00 | 54 | 1016.8 |
| 20260905035823 | 82 | 0 | 1.0 | 3.0 | 0.00 | 0.00 | 0.00 | 53 | 1016.8 |
| 20260905035321 | 82 | 0 | 1.0 | 4.0 | 0.00 | 0.00 | 0.00 | 54 | 1016.7 |
| 20260905034822 | 82 | 0 | 2.0 | 5.0 | 0.00 | 0.00 | 0.00 | 54 | 1016.7 |
| 20260905034259 | 82 | 0 | 2.0 | 5.0 | 0.00 | 0.00 | 0.00 | 54 | 1016.6 |
| 20260905033757 | 82 | 0 | 2.0 | 5.0 | 0.00 | 0.00 | 0.00 | 54 | 1016.8 |
| 20260905033252 | 82 | 0 | 2.0 | 5.0 | 0.00 | 0.00 | 0.00 | 54 | 1016.7 |
| 20260905032748 | 82 | 0 | 2.0 | 5.0 | 0.00 | 0.00 | 0.00 | 54 | 1016.6 |
| 20260905032221 | 82 | 0 | 1.0 | 4.0 | 0.00 | 0.00 | 0.00 | 54 | 1016.6 |
| 20260905031717 | 82 | 0 | 1.0 | 4.0 | 0.00 | 0.00 | 0.00 | 54 | 1016.5 |
| 20260905031214 | 82 | 0 | 0.0 | 3.0 | 0.00 | 0.00 | 0.00 | 54 | 1016.6 |
| 20260905030651 | 82 | 0 | 1.0 | 2.0 | 0.00 | 0.00 | 0.00 | 53 | 1016.4 |
| 20260905030150 | 82 | 0 | 1.0 | 3.0 | 0.00 | 0.00 | 0.00 | 53 | 1016.1 |
| 20260905025611 | 82 | 0 | 1.0 | 4.0 | 0.00 | 0.00 | 0.00 | 53 | 1016.1 |
| 20260905025049 | 83 | 0 | 1.0 | 4.0 | 0.00 | 0.00 | 0.00 | 52 | 1016.0 |
| 20260905024806 | 83 | 0 | 0.0 | 3.0 | 0.00 | 0.00 | 0.00 | 53 | 1016.0 |
| 20260905024648 | 83 | 0 | 0.0 | 3.0 | 0.00 | 0.00 | 0.00 | 53 | 1016.0 |
| 20260905024037 | 83 | 0 | 1.0 | 3.0 | 0.00 | 0.00 | 0.00 | 53 | 1015.9 |
| 20260905023508 | 83 | 0 | 1.0 | 5.0 | 0.00 | 0.00 | 0.00 | 52 | 1015.8 |
| 20260905022952 | 83 | 0 | 1.0 | 5.0 | 0.00 | 0.00 | 0.00 | 53 | 1015.8 |
| 20260905022433 | 84 | 0 | 1.0 | 3.0 | 0.00 | 0.00 | 0.00 | 53 | 1015.7 |
| 20260905022208 | 85 | 0 | 1.0 | 4.0 | 0.00 | 0.00 | 0.00 | 52 | 1015.6 |
| 20260905022049 | 85 | 0 | 1.0 | 4.0 | 0.00 | 0.00 | 0.00 | 52 | 1015.6 |
| 20260905021705 | 85 | 0 | 1.0 | 5.0 | 0.00 | 0.00 | 0.00 | 52 | 1015.6 |
| 20260905021535 | 85 | 0 | 1.0 | 5.0 | 0.00 | 0.00 | 0.00 | 52 | 1015.6 |
| 20260905020904 | 86 | 0 | 1.0 | 5.0 | 0.00 | 0.00 | 0.00 | 51 | 1015.6 |
| 20260905020627 | 86 | 0 | 2.0 | 8.0 | 0.00 | 0.00 | 0.00 | 52 | 1015.6 |
| 20260905020501 | 86 | 0 | 2.0 | 8.0 | 0.00 | 0.00 | 0.00 | 52 | 1015.6 |
| 20260905015857 | 87 | 0 | 2.0 | 9.0 | 0.00 | 0.00 | 0.00 | 49 | 1015.6 |
| 20260905015354 | 87 | 0 | 4.0 | 10.0 | 0.00 | 0.00 | 0.00 | 45 | 1015.5 |
| 20260905014828 | 87 | 0 | 5.0 | 13.0 | 0.00 | 0.00 | 0.00 | 45 | 1015.2 |
| 20260905014323 | 87 | 0 | 6.0 | 13.0 | 0.00 | 0.00 | 0.00 | 44 | 1015.0 |
| 20260905014029 | 87 | 0 | 6.0 | 13.0 | 0.00 | 0.00 | 0.00 | 42 | 1015.0 |
| 20260905013902 | 87 | 0 | 6.0 | 13.0 | 0.00 | 0.00 | 0.00 | 42 | 1015.0 |
| 20260905013304 | 87 | 0 | 7.0 | 15.0 | 0.00 | 0.00 | 0.00 | 42 | 1014.9 |
| 20260905013023 | 88 | 0 | 6.0 | 15.0 | 0.00 | 0.00 | 0.00 | 42 | 1014.8 |
| 20260905012900 | 88 | 0 | 6.0 | 15.0 | 0.00 | 0.00 | 0.00 | 42 | 1014.8 |
| 20260905012251 | 89 | 0 | 5.0 | 14.0 | 0.00 | 0.00 | 0.00 | 40 | 1014.9 |
| 20260905011724 | 89 | 0 | 5.0 | 16.0 | 0.00 | 0.00 | 0.00 | 40 | 1014.8 |
| 20260905011225 | 91 | 0 | 6.0 | 16.0 | 0.00 | 0.00 | 0.00 | 40 | 1014.9 |
| 20260905010722 | 92 | 186 | 5.0 | 19.0 | 0.00 | 0.00 | 0.00 | 38 | 1015.0 |
| 20260905010222 | 93 | 145 | 5.0 | 19.0 | 0.00 | 0.00 | 0.00 | 36 | 1014.9 |
| 20260905005923 | 93 | 146 | 4.0 | 11.0 | 0.00 | 0.00 | 0.00 | 35 | 1014.7 |
| 20260905005806 | 93 | 146 | 4.0 | 11.0 | 0.00 | 0.00 | 0.00 | 35 | 1014.7 |
| 20260905005153 | 93 | 140 | 4.0 | 11.0 | 0.00 | 0.00 | 0.00 | 35 | 1014.5 |
| 20260905004908 | 94 | 152 | 4.0 | 11.0 | 0.00 | 0.00 | 0.00 | 35 | 1014.5 |
| 20260905004738 | 94 | 152 | 4.0 | 11.0 | 0.00 | 0.00 | 0.00 | 35 | 1014.5 |
| 20260905004134 | 94 | 136 | 3.0 | 9.0 | 0.00 | 0.00 | 0.00 | 35 | 1014.5 |
| 20260905003610 | 94 | 175 | 3.0 | 10.0 | 0.00 | 0.00 | 0.00 | 35 | 1014.5 |
| 20260905003047 | 94 | 121 | 3.0 | 10.0 | 0.00 | 0.00 | 0.00 | 35 | 1014.4 |
| 20260905002546 | 94 | 137 | 3.0 | 9.0 | 0.00 | 0.00 | 0.00 | 34 | 1014.6 |
| 20260905002032 | 95 | 138 | 3.0 | 12.0 | 0.00 | 0.00 | 0.00 | 34 | 1014.5 |
| 20260905001518 | 95 | 128 | 4.0 | 12.0 | 0.00 | 0.00 | 0.00 | 33 | 1014.4 |
| 20260905001014 | 95 | 146 | 3.0 | 9.0 | 0.00 | 0.00 | 0.00 | 33 | 1014.4 |
| 20260905000513 | 96 | 142 | 3.0 | 8.0 | 0.00 | 0.00 | 0.00 | 32 | 1014.4 |
| 20260904235959 | 96 | 154 | 3.0 | 8.0 | 0.00 | 0.00 | 0.00 | 31 | 1014.4 |
| 20260904235442 | 96 | 142 | 3.0 | 8.0 | 0.00 | 0.00 | 0.00 | 31 | 1014.2 |
| 20260904234921 | 96 | 161 | 3.0 | 9.0 | 0.00 | 0.00 | 0.00 | 31 | 1014.3 |
| 20260904234409 | 97 | 148 | 2.0 | 9.0 | 0.00 | 0.00 | 0.00 | 31 | 1014.3 |
| 20260904233909 | 97 | 134 | 1.0 | 5.0 | 0.00 | 0.00 | 0.00 | 31 | 1014.3 |
| 20260904233407 | 97 | 136 | 1.0 | 5.0 | 0.00 | 0.00 | 0.00 | 31 | 1014.3 |
| 20260904232907 | 97 | 136 | 1.0 | 5.0 | 0.00 | 0.00 | 0.00 | 31 | 1014.3 |
| 20260904232411 | 98 | 138 | 2.0 | 7.0 | 0.00 | 0.00 | 0.00 | 31 | 1014.2 |
| 20260904231905 | 98 | 138 | 2.0 | 7.0 | 0.00 | 0.00 | 0.00 | 31 | 1014.2 |
| 20260904231407 | 98 | 132 | 2.0 | 4.0 | 0.00 | 0.00 | 0.00 | 31 | 1014.2 |
| 20260904230903 | 98 | 113 | 2.0 | 7.0 | 0.00 | 0.00 | 0.00 | 31 | 1014.1 |
| 20260904230347 | 98 | 151 | 2.0 | 7.0 | 0.00 | 0.00 | 0.00 | 30 | 1014.1 |
| 20260904225821 | 98 | 188 | 3.0 | 9.0 | 0.00 | 0.00 | 0.00 | 30 | 1014.1 |
| 20260904225257 | 99 | 150 | 3.0 | 7.0 | 0.00 | 0.00 | 0.00 | 29 | 1014.1 |
| 20260904224752 | 99 | 186 | 3.0 | 9.0 | 0.00 | 0.00 | 0.00 | 28 | 1014.1 |
| 20260904224253 | 100 | 202 | 3.0 | 7.0 | 0.00 | 0.00 | 0.00 | 28 | 1014.1 |
| 20260904223727 | 100 | 171 | 3.0 | 10.0 | 0.00 | 0.00 | 0.00 | 27 | 1014.2 |
| 20260904223203 | 100 | 144 | 4.0 | 14.0 | 0.00 | 0.00 | 0.00 | 28 | 1014.1 |
| 20260904222636 | 101 | 157 | 5.0 | 14.0 | 0.00 | 0.00 | 0.00 | 27 | 1013.9 |
| 20260904222136 | 101 | 115 | 6.0 | 15.0 | 0.00 | 0.00 | 0.00 | 27 | 1014.1 |
| 20260904221849 | 102 | 123 | 6.0 | 16.0 | 0.00 | 0.00 | 0.00 | 27 | 1014.1 |
| 20260904221731 | 102 | 123 | 6.0 | 16.0 | 0.00 | 0.00 | 0.00 | 27 | 1014.1 |
| 20260904221114 | 101 | 171 | 4.0 | 16.0 | 0.00 | 0.00 | 0.00 | 27 | 1013.9 |
| 20260904220532 | 101 | 155 | 4.0 | 11.0 | 0.00 | 0.00 | 0.00 | 28 | 1014.1 |
| 20260904220004 | 100 | 192 | 4.0 | 11.0 | 0.00 | 0.00 | 0.00 | 28 | 1014.2 |
| 20260904215447 | 101 | 139 | 4.0 | 14.0 | 0.00 | 0.00 | 0.00 | 28 | 1014.1 |
| 20260904214946 | 101 | 205 | 5.0 | 14.0 | 0.00 | 0.00 | 0.00 | 27 | 1013.9 |
| 20260904214555 | 102 | 248 | 5.0 | 13.0 | 0.00 | 0.00 | 0.00 | 28 | 1014.1 |
| 20260904214501 | 102 | 169 | 5.0 | 13.0 | 0.00 | 0.00 | 0.00 | 28 | 1014.1 |
| 20260904214240 | 102 | 248 | 5.0 | 13.0 | 0.00 | 0.00 | 0.00 | 28 | 1014.1 |
| 20260904213435 | 101 | 126 | 5.0 | 13.0 | 0.00 | 0.00 | 0.00 | 29 | 1014.1 |
| 20260904212910 | 101 | 93 | 5.0 | 17.0 | 0.00 | 0.00 | 0.00 | 28 | 1014.3 |
| 20260904212846 | 100 | 173 | 5.0 | 17.0 | 0.00 | 0.00 | 0.00 | 29 | 1014.3 |
| 20260904212504 | 100 | 173 | 5.0 | 17.0 | 0.00 | 0.00 | 0.00 | 29 | 1014.3 |
| 20260904211904 | 100 | 163 | 5.0 | 16.0 | 0.00 | 0.00 | 0.00 | 30 | 1014.3 |
| 20260904211618 | 99 | 87 | 5.0 | 17.0 | 0.00 | 0.00 | 0.00 | 30 | 1014.3 |
| 20260904211505 | 99 | 87 | 5.0 | 17.0 | 0.00 | 0.00 | 0.00 | 30 | 1014.3 |
| 20260904210843 | 98 | 150 | 4.0 | 17.0 | 0.00 | 0.00 | 0.00 | 31 | 1014.2 |
| 20260904210344 | 98 | 141 | 3.0 | 8.0 | 0.00 | 0.00 | 0.00 | 32 | 1014.3 |
| 20260904205832 | 98 | 170 | 5.0 | 14.0 | 0.00 | 0.00 | 0.00 | 32 | 1014.4 |
| 20260904205528 | 99 | 136 | 5.0 | 14.0 | 0.00 | 0.00 | 0.00 | 31 | 1014.5 |
| 20260904205411 | 99 | 136 | 5.0 | 14.0 | 0.00 | 0.00 | 0.00 | 31 | 1014.5 |
| 20260904204811 | 100 | 170 | 4.0 | 11.0 | 0.00 | 0.00 | 0.00 | 31 | 1014.5 |
| 20260904204240 | 100 | 130 | 5.0 | 11.0 | 0.00 | 0.00 | 0.00 | 30 | 1014.6 |
| 20260904203713 | 100 | 207 | 4.0 | 12.0 | 0.00 | 0.00 | 0.00 | 31 | 1014.7 |
| 20260904203147 | 99 | 169 | 4.0 | 12.0 | 0.00 | 0.00 | 0.00 | 32 | 1014.7 |
| 20260904202617 | 99 | 215 | 5.0 | 11.0 | 0.00 | 0.00 | 0.00 | 32 | 1014.8 |
| 20260904202104 | 98 | 145 | 5.0 | 11.0 | 0.00 | 0.00 | 0.00 | 34 | 1014.7 |
| 20260904201525 | 97 | 138 | 6.0 | 11.0 | 0.00 | 0.00 | 0.00 | 35 | 1014.7 |
| 20260904201003 | 97 | 138 | 6.0 | 15.0 | 0.00 | 0.00 | 0.00 | 34 | 1014.8 |
| 20260904200455 | 97 | 163 | 6.0 | 15.0 | 0.00 | 0.00 | 0.00 | 34 | 1014.8 |
| 20260904195953 | 97 | 161 | 4.0 | 12.0 | 0.00 | 0.00 | 0.00 | 33 | 1014.8 |
| 20260904195427 | 96 | 178 | 3.0 | 9.0 | 0.00 | 0.00 | 0.00 | 34 | 1014.8 |
| 20260904195138 | 95 | 174 | 3.0 | 8.0 | 0.00 | 0.00 | 0.00 | 34 | 1014.8 |
| 20260904195025 | 95 | 174 | 3.0 | 8.0 | 0.00 | 0.00 | 0.00 | 34 | 1014.8 |
| 20260904194641 | 95 | 123 | 3.0 | 8.0 | 0.00 | 0.00 | 0.00 | 34 | 1014.8 |
| 20260904194521 | 95 | 123 | 3.0 | 8.0 | 0.00 | 0.00 | 0.00 | 34 | 1014.8 |
| 20260904193851 | 94 | 145 | 2.0 | 8.0 | 0.00 | 0.00 | 0.00 | 36 | 1014.8 |
| 20260904193326 | 94 | 113 | 1.0 | 4.0 | 0.00 | 0.00 | 0.00 | 36 | 1014.9 |
| 20260904193305 | 94 | 113 | 0.0 | 3.0 | 0.00 | 0.00 | 0.00 | 38 | 1014.9 |
| 20260904192905 | 94 | 113 | 0.0 | 3.0 | 0.00 | 0.00 | 0.00 | 38 | 1014.9 |
| 20260904192233 | 93 | 113 | 0.0 | 3.0 | 0.00 | 0.00 | 0.00 | 37 | 1014.9 |
| 20260904191709 | 93 | 113 | 0.0 | 4.0 | 0.00 | 0.00 | 0.00 | 37 | 1014.9 |
| 20260904191209 | 92 | 113 | 0.0 | 4.0 | 0.00 | 0.00 | 0.00 | 38 | 1015.0 |
| 20260904190643 | 91 | 198 | 0.0 | 2.0 | 0.00 | 0.00 | 0.00 | 40 | 1015.3 |
| 20260904190140 | 91 | 198 | 0.0 | 4.0 | 0.00 | 0.00 | 0.00 | 39 | 1015.4 |
| 20260904185645 | 90 | 198 | 0.0 | 4.0 | 0.00 | 0.00 | 0.00 | 39 | 1015.4 |
| 20260904185123 | 90 | 198 | 1.0 | 4.0 | 0.00 | 0.00 | 0.00 | 38 | 1015.4 |
| 20260904184540 | 90 | 198 | 3.0 | 5.0 | 0.00 | 0.00 | 0.00 | 38 | 1015.4 |
| 20260904184241 | 91 | 198 | 3.0 | 7.0 | 0.00 | 0.00 | 0.00 | 37 | 1015.5 |
| 20260904184124 | 91 | 198 | 3.0 | 7.0 | 0.00 | 0.00 | 0.00 | 37 | 1015.5 |
| 20260904183447 | 91 | 176 | 3.0 | 9.0 | 0.00 | 0.00 | 0.00 | 39 | 1015.4 |
| 20260904182942 | 91 | 134 | 3.0 | 7.0 | 0.00 | 0.00 | 0.00 | 40 | 1015.7 |
| 20260904182445 | 92 | 142 | 2.0 | 6.0 | 0.00 | 0.00 | 0.00 | 37 | 1015.6 |
| 20260904181940 | 92 | 190 | 1.0 | 4.0 | 0.00 | 0.00 | 0.00 | 32 | 1015.7 |
| 20260904181438 | 93 | 190 | 3.0 | 9.0 | 0.00 | 0.00 | 0.00 | 32 | 1015.7 |
| 20260904181151 | 94 | 195 | 3.0 | 9.0 | 0.00 | 0.00 | 0.00 | 31 | 1015.8 |
| 20260904181032 | 94 | 195 | 3.0 | 9.0 | 0.00 | 0.00 | 0.00 | 31 | 1015.8 |
| 20260904180425 | 95 | 214 | 3.0 | 7.0 | 0.00 | 0.00 | 0.00 | 29 | 1015.9 |
| 20260904175858 | 96 | 198 | 2.0 | 7.0 | 0.00 | 0.00 | 0.00 | 29 | 1015.8 |
| 20260904175330 | 96 | 192 | 3.0 | 10.0 | 0.00 | 0.00 | 0.00 | 30 | 1015.7 |
| 20260904174803 | 97 | 151 | 2.0 | 9.0 | 0.00 | 0.00 | 0.00 | 28 | 1015.7 |
| 20260904174258 | 96 | 179 | 2.0 | 9.0 | 0.00 | 0.00 | 0.00 | 31 | 1015.6 |
| 20260904173754 | 96 | 171 | 3.0 | 9.0 | 0.00 | 0.00 | 0.00 | 31 | 1015.7 |
| 20260904173243 | 95 | 202 | 3.0 | 10.0 | 0.00 | 0.00 | 0.00 | 32 | 1015.7 |
| 20260904172704 | 94 | 159 | 4.0 | 10.0 | 0.00 | 0.00 | 0.00 | 33 | 1015.7 |
| 20260904172147 | 94 | 214 | 4.0 | 10.0 | 0.00 | 0.00 | 0.00 | 34 | 1015.7 |
| 20260904171146 | 92 | 205 | 4.0 | 10.0 | 0.00 | 0.00 | 0.00 | 36 | 1015.7 |
| 20260904170655 | 92 | 199 | 3.0 | 9.0 | 0.00 | 0.00 | 0.00 | 38 | 1015.7 |
| 20260904170140 | 92 | 233 | 4.0 | 12.0 | 0.00 | 0.00 | 0.00 | 39 | 1015.7 |
| 20260904165615 | 92 | 235 | 4.0 | 12.0 | 0.00 | 0.00 | 0.00 | 38 | 1015.7 |
| 20260904165118 | 91 | 198 | 3.0 | 9.0 | 0.00 | 0.00 | 0.00 | 40 | 1015.8 |
| 20260904164606 | 90 | 263 | 3.0 | 10.0 | 0.00 | 0.00 | 0.00 | 40 | 1015.7 |
| 20260904164049 | 90 | 239 | 2.0 | 10.0 | 0.00 | 0.00 | 0.00 | 40 | 1015.8 |
| 20260904163757 | 89 | 170 | 4.0 | 12.0 | 0.00 | 0.00 | 0.00 | 42 | 1015.8 |
| 20260904163641 | 89 | 170 | 4.0 | 12.0 | 0.00 | 0.00 | 0.00 | 42 | 1015.8 |
| 20260904163029 | 89 | 193 | 5.0 | 12.0 | 0.00 | 0.00 | 0.00 | 41 | 1015.9 |
| 20260904162511 | 88 | 200 | 4.0 | 12.0 | 0.00 | 0.00 | 0.00 | 42 | 1016.0 |
| 20260904161951 | 88 | 217 | 4.0 | 12.0 | 0.00 | 0.00 | 0.00 | 42 | 1016.0 |
| 20260904161920 | 87 | 184 | 5.0 | 11.0 | 0.00 | 0.00 | 0.00 | 44 | 1015.9 |
| 20260904161528 | 87 | 184 | 5.0 | 11.0 | 0.00 | 0.00 | 0.00 | 44 | 1015.9 |
| 20260904160917 | 86 | 286 | 6.0 | 11.0 | 0.00 | 0.00 | 0.00 | 44 | 1015.9 |
| 20260904160357 | 86 | 263 | 5.0 | 12.0 | 0.00 | 0.00 | 0.00 | 45 | 1015.9 |
| 20260904155840 | 85 | 251 | 5.0 | 12.0 | 0.00 | 0.00 | 0.00 | 45 | 1015.9 |
| 20260904155351 | 85 | 195 | 5.0 | 13.0 | 0.00 | 0.00 | 0.00 | 45 | 1015.8 |
| 20260904154819 | 85 | 167 | 5.0 | 13.0 | 0.00 | 0.00 | 0.00 | 46 | 1015.8 |
| 20260904154537 | 85 | 198 | 5.0 | 13.0 | 0.00 | 0.00 | 0.00 | 46 | 1015.6 |
| 20260904154419 | 85 | 198 | 5.0 | 13.0 | 0.00 | 0.00 | 0.00 | 46 | 1015.6 |
| 20260904154155 | 84 | 240 | 5.0 | 15.0 | 0.00 | 0.00 | 0.00 | 47 | 1015.5 |
| 20260904154114 | 84 | 240 | 5.0 | 15.0 | 0.00 | 0.00 | 0.00 | 47 | 1015.5 |
| 20260904153316 | 83 | 261 | 5.0 | 15.0 | 0.00 | 0.00 | 0.00 | 48 | 1015.4 |
| 20260904152752 | 83 | 206 | 6.0 | 15.0 | 0.00 | 0.00 | 0.00 | 49 | 1015.3 |
| 20260904152233 | 82 | 0 | 6.0 | 15.0 | 0.00 | 0.00 | 0.00 | 50 | 1015.3 |
| 20260904151707 | 81 | 0 | 5.0 | 13.0 | 0.00 | 0.00 | 0.00 | 52 | 1015.3 |
| 20260904151217 | 81 | 0 | 5.0 | 12.0 | 0.00 | 0.00 | 0.00 | 51 | 1015.3 |
| 20260904150705 | 81 | 0 | 4.0 | 12.0 | 0.00 | 0.00 | 0.00 | 51 | 1015.4 |
| 20260904150159 | 81 | 0 | 4.0 | 12.0 | 0.00 | 0.00 | 0.00 | 51 | 1015.2 |
| 20260904145635 | 81 | 0 | 4.0 | 12.0 | 0.00 | 0.00 | 0.00 | 51 | 1015.3 |
| 20260904145113 | 81 | 0 | 5.0 | 15.0 | 0.00 | 0.00 | 0.00 | 52 | 1015.3 |
| 20260904144546 | 81 | 167 | 6.0 | 23.0 | 0.00 | 0.00 | 0.00 | 52 | 1015.3 |
| 20260904144305 | 81 | 123 | 5.0 | 23.0 | 0.00 | 0.00 | 0.00 | 53 | 1015.3 |
| 20260904144149 | 81 | 123 | 5.0 | 23.0 | 0.00 | 0.00 | 0.00 | 53 | 1015.3 |
| 20260904143544 | 80 | 0 | 3.0 | 12.0 | 0.00 | 0.00 | 0.00 | 54 | 1015.2 |
| 20260904143057 | 80 | 0 | 3.0 | 14.0 | 0.00 | 0.00 | 0.00 | 56 | 1015.3 |
| 20260904142519 | 79 | 0 | 4.0 | 14.0 | 0.00 | 0.00 | 0.00 | 57 | 1015.3 |
| 20260904142018 | 78 | 0 | 3.0 | 12.0 | 0.00 | 0.00 | 0.00 | 59 | 1015.2 |
| 20260904141516 | 78 | 0 | 4.0 | 14.0 | 0.00 | 0.00 | 0.00 | 59 | 1015.4 |
| 20260904141012 | 77 | 0 | 4.0 | 14.0 | 0.00 | 0.00 | 0.00 | 61 | 1015.2 |
| 20260904140456 | 76 | 0 | 4.0 | 12.0 | 0.00 | 0.00 | 0.00 | 62 | 1015.4 |
| 20260904135952 | 76 | 0 | 4.0 | 14.0 | 0.00 | 0.00 | 0.00 | 62 | 1015.3 |
| 20260904135449 | 76 | 0 | 4.0 | 14.0 | 0.00 | 0.00 | 0.00 | 63 | 1015.3 |
| 20260904135140 | 75 | 0 | 3.0 | 9.0 | 0.00 | 0.00 | 0.00 | 64 | 1015.2 |
| 20260904135108 | 75 | 0 | 3.0 | 9.0 | 0.00 | 0.00 | 0.00 | 64 | 1015.2 |
| 20260904135017 | 75 | 0 | 4.0 | 11.0 | 0.00 | 0.00 | 0.00 | 63 | 1015.2 |
| 20260904133916 | 75 | 0 | 3.0 | 9.0 | 0.00 | 0.00 | 0.00 | 64 | 1015.2 |
| 20260904133416 | 75 | 0 | 3.0 | 10.0 | 0.00 | 0.00 | 0.00 | 64 | 1014.9 |
| 20260904132907 | 74 | 0 | 3.0 | 10.0 | 0.00 | 0.00 | 0.00 | 64 | 1014.9 |
| 20260904132612 | 74 | 0 | 3.0 | 12.0 | 0.00 | 0.00 | 0.00 | 64 | 1014.8 |
| 20260904132446 | 74 | 0 | 3.0 | 12.0 | 0.00 | 0.00 | 0.00 | 64 | 1014.8 |
| 20260904131816 | 74 | 0 | 3.0 | 12.0 | 0.00 | 0.00 | 0.00 | 64 | 1014.9 |
| 20260904131534 | 74 | 0 | 3.0 | 10.0 | 0.00 | 0.00 | 0.00 | 64 | 1014.8 |
| 20260904131416 | 74 | 0 | 3.0 | 10.0 | 0.00 | 0.00 | 0.00 | 64 | 1014.8 |
| 20260904131017 | 74 | 0 | 3.0 | 8.0 | 0.00 | 0.00 | 0.00 | 64 | 1014.8 |
| 20260904130850 | 74 | 0 | 3.0 | 8.0 | 0.00 | 0.00 | 0.00 | 64 | 1014.8 |
| 20260904130243 | 74 | 0 | 3.0 | 9.0 | 0.00 | 0.00 | 0.00 | 64 | 1014.8 |
| 20260904125754 | 74 | 0 | 3.0 | 9.0 | 0.00 | 0.00 | 0.00 | 63 | 1014.8 |
| 20260904125742 | 74 | 0 | 3.0 | 9.0 | 0.00 | 0.00 | 0.00 | 64 | 1014.7 |
| 20260904125346 | 74 | 0 | 3.0 | 9.0 | 0.00 | 0.00 | 0.00 | 63 | 1014.8 |
| 20260904124750 | 74 | 0 | 3.0 | 9.0 | 0.00 | 0.00 | 0.00 | 63 | 1014.8 |
| 20260904124435 | 74 | 0 | 3.0 | 10.0 | 0.00 | 0.00 | 0.00 | 63 | 1014.8 |
| 20260904124321 | 74 | 0 | 3.0 | 10.0 | 0.00 | 0.00 | 0.00 | 63 | 1014.8 |
| 20260904123646 | 74 | 0 | 3.0 | 10.0 | 0.00 | 0.00 | 0.00 | 62 | 1014.8 |
| 20260904123141 | 74 | 0 | 3.0 | 9.0 | 0.00 | 0.00 | 0.00 | 62 | 1014.8 |
| 20260904122617 | 74 | 0 | 3.0 | 10.0 | 0.00 | 0.00 | 0.00 | 62 | 1014.7 |
| 20260904122322 | 74 | 0 | 3.0 | 11.0 | 0.00 | 0.00 | 0.00 | 62 | 1014.7 |
| 20260904122200 | 74 | 0 | 3.0 | 11.0 | 0.00 | 0.00 | 0.00 | 62 | 1014.7 |
| 20260904121552 | 74 | 0 | 3.0 | 10.0 | 0.00 | 0.00 | 0.00 | 62 | 1014.7 |
| 20260904121320 | 74 | 0 | 3.0 | 10.0 | 0.00 | 0.00 | 0.00 | 62 | 1014.6 |
| 20260904121203 | 74 | 0 | 3.0 | 10.0 | 0.00 | 0.00 | 0.00 | 62 | 1014.6 |
| 20260904120549 | 74 | 0 | 2.0 | 8.0 | 0.00 | 0.00 | 0.00 | 62 | 1014.6 |
| 20260904120022 | 74 | 0 | 2.0 | 8.0 | 0.00 | 0.00 | 0.00 | 62 | 1014.5 |
| 20260904115517 | 74 | 0 | 2.0 | 6.0 | 0.00 | 0.00 | 0.00 | 62 | 1014.5 |
| 20260904114951 | 74 | 0 | 2.0 | 6.0 | 0.00 | 0.00 | 0.00 | 62 | 1014.6 |
| 20260904114447 | 74 | 0 | 2.0 | 6.0 | 0.00 | 0.00 | 0.00 | 62 | 1014.6 |
| 20260904113945 | 74 | 0 | 1.0 | 5.0 | 0.00 | 0.00 | 0.00 | 62 | 1014.7 |
| 20260904113442 | 74 | 0 | 1.0 | 5.0 | 0.00 | 0.00 | 0.00 | 62 | 1014.6 |
| 20260904112930 | 74 | 0 | 2.0 | 8.0 | 0.00 | 0.00 | 0.00 | 61 | 1014.6 |
| 20260904112400 | 74 | 0 | 2.0 | 8.0 | 0.00 | 0.00 | 0.00 | 61 | 1014.7 |
| 20260904111834 | 74 | 0 | 2.0 | 6.0 | 0.00 | 0.00 | 0.00 | 61 | 1014.7 |
| 20260904111558 | 74 | 0 | 2.0 | 5.0 | 0.00 | 0.00 | 0.00 | 60 | 1014.7 |
| 20260904111436 | 74 | 0 | 2.0 | 5.0 | 0.00 | 0.00 | 0.00 | 60 | 1014.7 |
| 20260904110802 | 74 | 0 | 2.0 | 5.0 | 0.00 | 0.00 | 0.00 | 60 | 1014.7 |
| 20260904110233 | 74 | 0 | 2.0 | 6.0 | 0.00 | 0.00 | 0.00 | 60 | 1014.5 |
| 20260904105731 | 74 | 0 | 2.0 | 6.0 | 0.00 | 0.00 | 0.00 | 59 | 1014.6 |
| 20260904105226 | 74 | 0 | 2.0 | 5.0 | 0.00 | 0.00 | 0.00 | 59 | 1014.7 |
| 20260904104919 | 75 | 0 | 2.0 | 8.0 | 0.00 | 0.00 | 0.00 | 59 | 1014.7 |
| 20260904104802 | 75 | 0 | 2.0 | 8.0 | 0.00 | 0.00 | 0.00 | 59 | 1014.7 |
| 20260904104153 | 75 | 0 | 2.0 | 9.0 | 0.00 | 0.00 | 0.00 | 59 | 1014.7 |
| 20260904103855 | 75 | 0 | 2.0 | 9.0 | 0.00 | 0.00 | 0.00 | 59 | 1014.6 |
| 20260904103736 | 75 | 0 | 2.0 | 9.0 | 0.00 | 0.00 | 0.00 | 59 | 1014.6 |
| 20260904103352 | 75 | 0 | 2.0 | 8.0 | 0.00 | 0.00 | 0.00 | 59 | 1014.6 |
| 20260904103227 | 75 | 0 | 2.0 | 8.0 | 0.00 | 0.00 | 0.00 | 59 | 1014.6 |
| 20260904102631 | 75 | 0 | 2.0 | 8.0 | 0.00 | 0.00 | 0.00 | 58 | 1014.5 |
| 20260904102121 | 75 | 0 | 2.0 | 8.0 | 0.00 | 0.00 | 0.00 | 58 | 1014.6 |
| 20260904101550 | 75 | 0 | 2.0 | 8.0 | 0.00 | 0.00 | 0.00 | 58 | 1014.6 |
| 20260904101046 | 75 | 0 | 2.0 | 6.0 | 0.00 | 0.00 | 0.00 | 58 | 1014.6 |
| 20260904100817 | 75 | 0 | 2.0 | 6.0 | 0.00 | 0.00 | 0.00 | 58 | 1014.6 |
| 20260904095956 | 74 | 0 | 2.0 | 6.0 | 0.00 | 0.00 | 0.00 | 58 | 1014.6 |
| 20260904095447 | 74 | 0 | 2.0 | 6.0 | 0.00 | 0.00 | 0.00 | 59 | 1014.6 |
| 20260904094922 | 74 | 0 | 2.0 | 6.0 | 0.00 | 0.00 | 0.00 | 59 | 1014.5 |
| 20260904094358 | 74 | 0 | 2.0 | 5.0 | 0.00 | 0.00 | 0.00 | 60 | 1014.5 |
| 20260904093830 | 74 | 0 | 2.0 | 5.0 | 0.00 | 0.00 | 0.00 | 60 | 1014.6 |
| 20260904093326 | 74 | 0 | 1.0 | 5.0 | 0.00 | 0.00 | 0.00 | 60 | 1014.5 |
| 20260904093045 | 74 | 0 | 2.0 | 5.0 | 0.00 | 0.00 | 0.00 | 60 | 1014.5 |
| 20260904092914 | 74 | 0 | 2.0 | 5.0 | 0.00 | 0.00 | 0.00 | 60 | 1014.5 |
| 20260904092530 | 74 | 0 | 1.0 | 5.0 | 0.00 | 0.00 | 0.00 | 60 | 1014.5 |
| 20260904092410 | 74 | 0 | 1.0 | 5.0 | 0.00 | 0.00 | 0.00 | 60 | 1014.5 |
| 20260904091757 | 74 | 0 | 1.0 | 3.0 | 0.00 | 0.00 | 0.00 | 60 | 1014.5 |